Change the Weather History Date:

Tuesday, October 8, 2013

  Actual Average Record
Temperature  
Mean Temperature 45 °F -  
Max Temperature 62 °F 51 °F 78 °F (2003)
Min Temperature 28 °F 35 °F 28 °F (1998)
Degree Days  
Heating Degree Days 20    
Moisture  
Dew Point 37 °F    
Average Humidity 66    
Maximum Humidity 93    
Minimum Humidity 45    
Precipitation  
Precipitation 0.00 in - - ()
Sea Level Pressure  
Sea Level Pressure 29.92 in    
Wind  
Wind Speed 4 mph (SSE)    
Max Wind Speed 13 mph    
Max Gust Speed 21 mph    
Visibility 10 miles    
Events      
Averages and records for this station are not official NWS values.
T = Trace of Precipitation, MM = Missing Value Source: NWS Daily Summary

Daily Weather History Graph

Daily Weather History Graph

Search for Another Location

Airport or City:

Trip Planner

Search our weather history database for the weather conditions in past years. The results will help you decide how hot, cold, wet, or windy it might be!

Date:

Astronomy

Oct. 08, 2013 Rise Set
Actual Time 7:10 AM CDT 6:26 PM CDT
Civil Twilight 6:39 AM CDT 6:57 PM CDT
Nautical Twilight 6:04 AM CDT 7:32 PM CDT
Astronomical Twilight 5:27 AM CDT 8:08 PM CDT
Moon 11:21 AM CDT (10/8) 8:45 PM CDT (10/8)
Length of Visible Light 12h 17m
Length of Day
11h 15m
Waxing Crescent, 16% of the Moon is Illuminated
Oct 8
Waxing Crescent
Oct 11
First Quarter
Oct 18
Full
Oct 26
Last Quarter
Nov 3
New

Hourly Weather History & Observations

Time (CDT) Temp. Windchill Dew Point Humidity Pressure Visibility Wind Dir Wind Speed Gust Speed Precip Events Conditions
12:13 AM 30.2 °F - 26.6 °F 86% 29.96 in 10.0 mi Calm Calm - N/A   Clear
12:34 AM 28.4 °F - 26.6 °F 93% 29.97 in 10.0 mi Calm Calm - N/A   Clear
12:53 AM 30.2 °F - 26.6 °F 86% 29.97 in 10.0 mi Calm Calm - N/A   Clear
1:13 AM 30.2 °F - 28.4 °F 93% 29.97 in 10.0 mi Calm Calm - N/A   Clear
1:34 AM 32.0 °F - 28.4 °F 87% 29.97 in 10.0 mi Calm Calm - N/A   Clear
1:53 AM 30.2 °F - 28.4 °F 93% 29.97 in 10.0 mi Calm Calm - N/A   Clear
2:13 AM 30.2 °F - 28.4 °F 93% 29.97 in 10.0 mi Calm Calm - N/A   Clear
2:34 AM 32.0 °F - 30.2 °F 93% 29.97 in 10.0 mi Calm Calm - N/A   Clear
2:53 AM 30.2 °F - 26.6 °F 86% 29.97 in 10.0 mi Calm Calm - N/A   Clear
3:13 AM 30.2 °F - 28.4 °F 93% 29.97 in 10.0 mi Calm Calm - N/A   Clear
3:34 AM 30.2 °F - 26.6 °F 86% 29.97 in 10.0 mi Calm Calm - N/A   Clear
3:53 AM 30.2 °F - 28.4 °F 93% 29.97 in 10.0 mi Calm Calm - N/A   Clear
4:13 AM 30.2 °F - 28.4 °F 93% 29.97 in 10.0 mi Calm Calm - N/A   Clear
4:34 AM 30.2 °F - 28.4 °F 93% 29.96 in 10.0 mi Calm Calm - N/A   Clear
4:53 AM 32.0 °F - 28.4 °F 87% 29.97 in 10.0 mi Calm Calm - N/A   Clear
5:13 AM 33.8 °F - 30.2 °F 87% 29.97 in 10.0 mi Calm Calm - N/A   Clear
5:34 AM 35.6 °F - 33.8 °F 93% 29.98 in 10.0 mi Calm Calm - N/A   Clear
5:53 AM 30.2 °F - 28.4 °F 93% 29.98 in 10.0 mi Calm Calm - N/A   Clear
6:14 AM 35.6 °F 32.8 °F 33.8 °F 93% 29.98 in 10.0 mi SE 3.5 mph - N/A   Clear
6:33 AM 39.2 °F 37.0 °F 33.8 °F 81% 29.97 in 10.0 mi SE 3.5 mph - N/A   Clear
6:53 AM 39.2 °F - 35.6 °F 87% 29.97 in 10.0 mi Calm Calm - N/A   Clear
7:13 AM 41.0 °F 39.0 °F 35.6 °F 81% 29.98 in 10.0 mi SSE 3.5 mph - N/A   Clear
7:34 AM 42.8 °F - 35.6 °F 76% 29.98 in 10.0 mi Calm Calm - N/A   Clear
7:53 AM 42.8 °F - 35.6 °F 76% 29.98 in 10.0 mi Calm Calm - N/A   Clear
8:13 AM 44.6 °F - 37.4 °F 76% 29.98 in 10.0 mi Calm Calm - N/A   Clear
8:34 AM 44.6 °F 42.2 °F 37.4 °F 76% 29.97 in 10.0 mi ESE 4.6 mph - N/A   Clear
8:53 AM 46.4 °F - 39.2 °F 76% 29.97 in 10.0 mi Calm Calm - N/A   Clear
9:14 AM 48.2 °F - 41.0 °F 76% 29.97 in 10.0 mi SSE 5.8 mph - N/A   Clear
9:33 AM 50.0 °F - 39.2 °F 66% 29.96 in 10.0 mi SE 5.8 mph - N/A   Clear
9:54 AM 51.8 °F - 39.2 °F 62% 29.96 in 10.0 mi SSE 9.2 mph - N/A   Clear
10:14 AM 51.8 °F - 39.2 °F 62% 29.95 in 10.0 mi SSE 5.8 mph - N/A   Clear
10:33 AM 51.8 °F - 39.2 °F 62% 29.94 in 10.0 mi South 10.4 mph - N/A   Clear
10:54 AM 53.6 °F - 39.2 °F 58% 29.94 in 10.0 mi SSE 9.2 mph - N/A   Clear
11:13 AM 53.6 °F - 39.2 °F 58% 29.94 in 10.0 mi SSE 6.9 mph 16.1 mph N/A   Clear
11:34 AM 55.4 °F - 39.2 °F 54% 29.93 in 10.0 mi SSE 8.1 mph - N/A   Clear
11:53 AM 55.4 °F - 39.2 °F 54% 29.93 in 10.0 mi SSE 9.2 mph - N/A   Clear
12:13 PM 57.2 °F - 39.2 °F 51% 29.92 in 10.0 mi SSE 9.2 mph - N/A   Clear
12:34 PM 55.4 °F - 39.2 °F 54% 29.92 in 10.0 mi SSE 9.2 mph 17.3 mph N/A   Clear
12:53 PM 55.4 °F - 39.2 °F 54% 29.90 in 10.0 mi SSE 8.1 mph - N/A   Clear
1:13 PM 55.4 °F - 39.2 °F 54% 29.89 in 10.0 mi SSE 8.1 mph - N/A   Clear
1:34 PM 55.4 °F - 41.0 °F 58% 29.88 in 10.0 mi SSE 6.9 mph 16.1 mph N/A   Clear
1:53 PM 57.2 °F - 41.0 °F 55% 29.87 in 10.0 mi SSE 11.5 mph 18.4 mph N/A   Clear
2:14 PM 57.2 °F - 41.0 °F 55% 29.87 in 10.0 mi SE 10.4 mph - N/A   Clear
2:34 PM 60.8 °F - 41.0 °F 48% 29.87 in 10.0 mi SSE 10.4 mph 17.3 mph N/A   Clear
2:53 PM 60.8 °F - 41.0 °F 48% 29.86 in 10.0 mi SSE 8.1 mph - N/A   Clear
3:14 PM 60.8 °F - 42.8 °F 52% 29.85 in 10.0 mi SE 10.4 mph 16.1 mph N/A   Clear
3:33 PM 60.8 °F - 42.8 °F 52% 29.85 in 10.0 mi SSE 8.1 mph - N/A   Clear
3:54 PM 62.6 °F - 42.8 °F 48% 29.85 in 10.0 mi SSE 9.2 mph - N/A   Clear
4:14 PM 62.6 °F - 42.8 °F 48% 29.84 in 10.0 mi South 8.1 mph - N/A   Clear
4:33 PM 62.6 °F - 41.0 °F 45% 29.84 in 10.0 mi SSE 9.2 mph 16.1 mph N/A   Clear
4:54 PM 60.8 °F - 41.0 °F 48% 29.84 in 10.0 mi SSE 10.4 mph 16.1 mph N/A   Clear
5:13 PM 60.8 °F - 41.0 °F 48% 29.83 in 10.0 mi South 9.2 mph 18.4 mph N/A   Clear
5:33 PM 60.8 °F - 41.0 °F 48% 29.84 in 10.0 mi South 8.1 mph 17.3 mph N/A   Clear
5:54 PM 60.8 °F - 41.0 °F 48% 29.84 in 10.0 mi SSE 8.1 mph - N/A   Clear
6:13 PM 59.0 °F - 41.0 °F 51% 29.84 in 10.0 mi South 8.1 mph - N/A   Clear
6:33 PM 59.0 °F - 41.0 °F 51% 29.84 in 10.0 mi South 9.2 mph - N/A   Clear
6:54 PM 60.8 °F - 39.2 °F 45% 29.85 in 10.0 mi South 11.5 mph 18.4 mph N/A   Clear
7:13 PM 60.8 °F - 39.2 °F 45% 29.85 in 10.0 mi South 10.4 mph 20.7 mph N/A   Clear
7:33 PM 60.8 °F - 41.0 °F 48% 29.86 in 10.0 mi South 10.4 mph 16.1 mph N/A   Clear
7:54 PM 60.8 °F - 41.0 °F 48% 29.86 in 10.0 mi South 9.2 mph 20.7 mph N/A   Clear
8:13 PM 59.0 °F - 41.0 °F 51% 29.87 in 10.0 mi South 10.4 mph 18.4 mph N/A   Clear
8:33 PM 59.0 °F - 41.0 °F 51% 29.87 in 10.0 mi South 12.7 mph 17.3 mph N/A   Clear
8:54 PM 57.2 °F - 41.0 °F 55% 29.88 in 10.0 mi South 9.2 mph - N/A   Clear
9:13 PM 57.2 °F - 41.0 °F 55% 29.88 in 10.0 mi South 8.1 mph - N/A   Clear
9:34 PM 57.2 °F - 41.0 °F 55% 29.89 in 10.0 mi South 9.2 mph - N/A   Clear
9:54 PM 57.2 °F - 41.0 °F 55% 29.89 in 10.0 mi South 9.2 mph - N/A   Clear
10:13 PM 57.2 °F - 41.0 °F 55% 29.89 in 10.0 mi South 9.2 mph - N/A   Clear
10:34 PM 57.2 °F - 41.0 °F 55% 29.89 in 10.0 mi South 8.1 mph - N/A   Clear
10:54 PM 57.2 °F - 41.0 °F 55% 29.89 in 10.0 mi South 8.1 mph - N/A   Clear
11:13 PM 57.2 °F - 41.0 °F 55% 29.89 in 10.0 mi South 11.5 mph 16.1 mph N/A   Clear
11:34 PM 59.0 °F - 41.0 °F 51% 29.90 in 10.0 mi South 11.5 mph 17.3 mph N/A   Clear
11:53 PM 59.0 °F - 41.0 °F 51% 29.90 in 10.0 mi South 10.4 mph 18.4 mph N/A   Clear